Date String (YYYY-MM-DD hh:mm:ss) UTC,Instrument flags,Ambient pressure (hPa),Sample flow (lpm),Bypass flow (lpm),Sample temperature (°C),Ambient temperature (°C),ASC tube jacket temperature (°C),LED temperature (°C),Box temperature (°C),Sample RH (%),Mass concentration (μg/m³),Mass concentration (μg/m³)
DateTimeUTC,F1_M11,P_M11,Q1_M11,Q2_M11,T1_M11,T2_M11,T3_M11,T4_M11,T5_M11,U1_M11,X0_M11,X2_M11
2021-08-18 21:00:00,,0823.3,5.01,0.00,28.7,26.3,00.0,37.8,30.4,21.1,0034.11,0019.41
2021-08-18 21:01:00,,0823.3,4.99,0.00,28.7,26.8,00.0,37.8,30.5,21.3,0034.20,0019.36
2021-08-18 21:02:00,,0823.3,5.00,0.00,28.8,27.2,00.0,37.8,30.7,21.5,0033.76,0019.37
2021-08-18 21:03:00,,0823.4,5.01,0.00,28.9,27.5,00.0,37.8,30.8,21.5,0033.29,0019.35
2021-08-18 21:04:00,,0823.4,4.99,0.00,29.0,27.8,00.0,37.8,30.9,21.6,0032.91,0019.31
2021-08-18 21:05:00,,0823.3,5.00,0.00,29.0,27.3,00.0,37.9,30.7,21.7,0031.88,0019.30
2021-08-18 21:06:00,,0823.3,5.00,0.00,28.8,25.8,00.0,37.8,30.2,22.0,0031.68,0019.27
2021-08-18 21:07:00,,0823.3,5.02,0.00,28.7,25.7,00.0,37.8,30.2,22.0,0031.03,0019.25
2021-08-18 21:08:00,,0823.3,5.00,0.00,28.7,26.2,00.0,37.8,30.3,22.5,0030.61,0019.37
2021-08-18 21:09:00,,0823.2,4.98,0.00,28.7,26.6,00.0,37.8,30.4,22.5,0031.25,0019.47
2021-08-18 21:10:00,,0823.2,5.00,0.00,28.8,27.0,00.0,37.8,30.6,22.1,0030.86,0019.54
2021-08-18 21:11:00,,0823.2,5.00,0.00,28.8,27.3,00.0,37.8,30.7,22.3,0030.93,0019.64
2021-08-18 21:12:00,,0823.2,4.99,0.00,28.9,27.7,00.0,37.8,30.9,22.4,0031.39,0019.72
2021-08-18 21:13:00,,0823.2,5.01,0.00,28.9,27.2,00.0,37.9,30.7,21.8,0031.49,0019.78
2021-08-18 21:14:00,,0823.3,5.00,0.00,28.8,25.7,00.0,37.8,30.3,21.9,0031.30,0019.77
2021-08-18 21:15:00,,0823.2,5.00,0.00,28.7,25.7,00.0,37.8,30.2,22.6,0030.98,0019.76
2021-08-18 21:16:00,,0823.1,5.00,0.00,28.7,26.2,00.0,37.8,30.3,22.8,0030.81,0019.74
2021-08-18 21:17:00,,0823.2,4.99,0.00,28.7,26.6,00.0,37.8,30.5,23.1,0030.63,0019.75
2021-08-18 21:18:00,,0823.2,5.01,0.00,28.8,27.0,00.0,37.8,30.6,22.3,0031.01,0019.74
2021-08-18 21:19:00,,0823.2,4.99,0.00,28.8,27.4,00.0,37.8,30.8,22.1,0030.61,0019.72
2021-08-18 21:20:00,,0823.2,5.02,0.00,28.9,27.5,00.0,37.8,30.8,22.4,0029.71,0019.67
2021-08-18 21:21:00,,0823.2,5.00,0.00,28.9,26.3,00.0,37.8,30.4,22.6,0029.26,0019.68
2021-08-18 21:22:00,,0823.2,4.98,0.00,28.7,25.5,00.0,37.8,30.1,23.1,0029.23,0019.69
2021-08-18 21:23:00,,0823.2,5.01,0.00,28.7,25.9,00.0,37.8,30.2,23.3,0029.50,0019.70
2021-08-18 21:24:00,,0823.1,5.00,0.00,28.7,26.3,00.0,37.8,30.4,23.6,0029.09,0019.71
2021-08-18 21:25:00,,0823.2,5.01,0.00,28.7,26.7,00.0,37.8,30.5,23.1,0028.71,0019.71
2021-08-18 21:26:00,,0823.1,4.99,0.00,28.8,27.1,00.0,37.8,30.6,22.6,0028.63,0019.68
2021-08-18 21:27:00,,0823.1,5.00,0.00,28.8,27.4,00.0,37.8,30.8,22.9,0028.53,0019.63
2021-08-18 21:28:00,,0823.1,5.00,0.00,28.9,27.5,00.0,37.8,30.8,22.1,0028.30,0019.62
2021-08-18 21:29:00,,0823.1,5.00,0.00,28.9,26.3,00.0,37.8,30.4,21.9,0028.63,0019.61
2021-08-18 21:30:00,,0823.1,5.00,0.00,28.7,25.6,00.0,37.8,30.1,22.9,0029.30,0019.60
2021-08-18 21:31:00,,0823.0,5.01,0.00,28.7,26.0,00.0,37.8,30.2,22.3,0029.24,0019.57
2021-08-18 21:32:00,,0823.0,5.00,0.00,28.7,26.4,00.0,37.8,30.4,22.0,0028.92,0019.53
2021-08-18 21:33:00,,0823.0,4.99,0.00,28.7,26.8,00.0,37.8,30.5,22.2,0028.81,0019.48
2021-08-18 21:34:00,,0823.0,5.01,0.00,28.8,27.2,00.0,37.8,30.7,22.0,0028.83,0019.42
2021-08-18 21:35:00,,0822.9,5.00,0.00,28.9,27.5,00.0,37.8,30.8,21.1,0029.01,0019.34
2021-08-18 21:36:00,,0822.9,5.00,0.00,28.9,27.6,00.0,37.8,30.8,21.1,0028.92,0019.23
2021-08-18 21:37:00,,0822.9,4.99,0.00,28.9,26.3,00.0,37.8,30.4,21.1,0029.01,0019.20
2021-08-18 21:38:00,,0822.9,4.99,0.00,28.7,25.5,00.0,37.8,30.1,21.3,0029.52,0019.17
2021-08-18 21:39:00,,0822.8,5.00,0.00,28.7,25.9,00.0,37.8,30.2,21.6,0028.96,0019.12
2021-08-18 21:40:00,,0822.8,5.01,0.00,28.7,26.3,00.0,37.8,30.4,21.6,0028.43,0019.06
2021-08-18 21:41:00,,0822.8,5.03,0.00,28.7,26.7,00.0,37.8,30.5,21.0,0027.65,0018.96
2021-08-18 21:42:00,,0822.8,5.00,0.00,28.8,27.1,00.0,37.8,30.6,21.1,0027.49,0018.87
2021-08-18 21:43:00,,0822.8,4.99,0.00,28.9,27.4,00.0,37.8,30.8,20.9,0027.59,0018.85
2021-08-18 21:44:00,,0822.8,5.01,0.00,28.9,27.5,00.0,37.8,30.8,20.7,0027.76,0018.80
2021-08-18 21:45:00,,0822.8,5.01,0.00,28.9,26.3,00.0,37.8,30.4,20.5,0027.18,0018.79
2021-08-18 21:46:00,,0822.8,4.99,0.00,28.7,25.5,00.0,37.8,30.1,20.7,0026.39,0018.73
2021-08-18 21:47:00,,0822.7,5.00,0.00,28.7,26.0,00.0,37.8,30.3,20.9,0026.75,0018.73
2021-08-18 21:48:00,,0822.8,5.00,0.00,28.7,26.4,00.0,37.8,30.4,21.0,0027.00,0018.67
2021-08-18 21:49:00,,0822.7,5.00,0.00,28.7,26.8,00.0,37.8,30.5,21.2,0026.58,0018.60
2021-08-18 21:50:00,,0822.7,5.00,0.00,28.8,27.2,00.0,37.8,30.7,20.5,0026.23,0018.49
2021-08-18 21:51:00,,0822.8,5.01,0.00,28.9,27.5,00.0,37.8,30.8,20.8,0025.63,0018.43
2021-08-18 21:52:00,,0822.8,5.00,0.00,28.9,27.6,00.0,37.8,30.8,21.2,0026.70,0018.38
2021-08-18 21:53:00,,0822.7,5.00,0.00,28.9,26.3,00.0,37.8,30.5,22.0,0027.96,0018.37
2021-08-18 21:54:00,,0822.7,4.99,0.00,28.8,25.6,00.0,37.8,30.2,23.0,0028.10,0018.35
2021-08-18 21:55:00,,0822.7,5.00,0.00,28.7,26.0,00.0,37.8,30.3,23.2,0028.08,0018.34
2021-08-18 21:56:00,,0822.7,4.99,0.00,28.7,26.4,00.0,37.8,30.4,22.7,0028.26,0018.33
2021-08-18 21:57:00,,0822.7,5.00,0.00,28.8,26.8,00.0,37.8,30.5,22.6,0028.85,0018.33
2021-08-18 21:58:00,,0822.7,5.00,0.00,28.8,27.2,00.0,37.8,30.7,23.0,0028.61,0018.38
2021-08-18 21:59:00,,0822.6,5.01,0.00,28.9,27.5,00.0,37.8,30.8,23.1,0028.52,0018.39
